RH
86 86 85 85 85 85 83 82 82 81 80 77 75 73 74 71 75 73 75 64 70 70 58 52 47 50 57 69 78 90 93 80 75 75 62 54 56 47 44 35 47 72 77 75 99
88 87 87 86 84 84 84 84 82 82 79 78 73 73 73 73 74 74 58 65 67 66 52 43 58 52 64 69 74 90 96 72 53 68 63 60 71 74 66 52 64 91 92 96 98
87 88 86 85 85 85 85 84 83 82 79 76 76 74 75 78 76 57 55 50 47 44 44 49 53 55 69 67 73 75 89 64 61 65 61 75 79 72 84 61 73 78 76 94 92
88 87 86 86 86 87 86 85 84 82 80 78 77 75 78 75 65 41 52 48 45 42 44 52 58 73 86 78 64 78 78 72 69 62 73 74 87 86 83 75 73 74 82 94 93
88 88 87 88 87 87 87 87 85 83 80 81 79 74 77 82 82 39 40 37 42 43 50 61 73 73 96 68 61 79 71 73 77 73 73 79 86 92 85 78 73 73 86 96 93
89 90 88 88 89 88 87 87 85 79 74 78 79 74 77 74 40 38 38 35 36 47 51 59 70 81 86 71 75 71 67 65 57 67 76 78 79 89 77 84 80 81 87 88 91
90 87 89 89 90 88 83 71 82 72 64 73 72 68 71 67 41 36 32 33 35 44 54 56 61 75 87 77 65 63 90 68 66 61 76 74 83 89 79 87 82 87 88 84 94
90 88 88 90 90 86 35 34 74 59 52 60 65 72 79 40 33 31 30 31 36 52 51 55 59 68 78 76 65 81 87 99 61 59 69 69 88 76 80 88 82 83 85 84 86
90 88 87 88 91 71 41 23 46 44 32 50 58 60 55 27 26 27 30 35 42 58 56 57 61 79 76 93 81 96 98 90 69 53 79 76 83 68 74 83 87 86 87 83 90
87 84 85 86 92 74 44 18 30 29 45 48 43 43 28 30 31 31 29 33 39 70 67 74 84 90 82 100 96 91 96 80 75 56 66 85 74 80 81 81 85 89 89 84 91
86 75 51 68 68 61 41 42 70 40 61 67 60 66 47 34 32 31 32 37 44 51 70 76 98 97 79 72 99 94 87 86 73 62 68 75 79 74 79 81 91 94 92 86 82
83 76 27 30 54 57 52 71 74 74 90 62 64 65 54 48 45 36 43 55 59 76 74 82 87 71 72 72 88 88 93 86 65 59 69 65 79 70 82 78 83 89 95 91 86
79 55 29 23 44 40 66 62 72 74 88 58 52 51 35 32 41 44 56 66 68 79 77 88 67 56 68 91 88 79 80 85 69 61 70 70 66 79 74 78 83 84 92 91 90
68 37 34 22 32 58 56 57 69 71 77 35 37 31 34 39 44 45 59 64 70 91 87 83 61 63 62 74 86 91 70 74 70 71 94 76 89 69 85 87 86 84 90 87 91
33 38 26 28 48 62 58 59 68 58 49 32 41 29 35 35 42 34 52 72 90 93 88 63 74 77 70 56 70 73 86 86 75 93 95 74 88 70 82 94 94 87 90 88 88
28 41 26 28 35 45 60 67 60 71 54 57 43 44 53 43 42 40 67 50 70 71 67 87 67 66 68 57 55 74 96 97 73 90 99 80 83 74 93 74 78 85 88 88 88
30 42 29 48 53 56 65 60 75 77 48 41 54 54 59 53 45 48 81 90 92 77 84 69 56 64 61 62 66 92 97 97 96 97 93 93 89 70 58 58 66 87 88 86 87
32 42 26 34 44 60 44 75 76 67 59 45 53 59 61 55 50 56 81 96 86 84 95 99 78 69 61 71 64 93 94 93 98 98 93 89 97 67 50 51 55 65 76 79 89
38 44 30 28 34 48 73 91 83 62 49 53 60 71 71 57 64 61 70 98 96 86 75 97 75 50 72 68 59 66 96 97 90 92 94 91 66 48 39 43 52 67 83 90 87
46 48 34 25 28 36 87 82 62 48 46 48 80 68 81 72 73 74 80 84 76 62 81 78 95 60 70 68 67 59 62 96 95 98 82 89 67 64 58 59 47 72 86 88 85
46 68 38 23 25 74 89 81 54 44 49 56 57 73 69 76 69 81 73 65 68 68 64 87 96 78 78 93 92 79 89 94 91 96 96 91 78 71 83 75 72 64 67 87 87
58 71 38 23 81 100 90 70 58 52 50 50 50 58 62 58 78 83 81 63 59 61 90 78 97 96 93 72 71 83 80 87 96 87 98 94 79 68 77 72 73 74 74 79 86
93 86 35 29 80 97 74 65 59 58 57 55 58 60 56 62 72 62 63 50 56 63 92 92 94 96 80 95 75 90 90 94 97 96 97 94 77 65 72 71 71 74 86 81 88
88 76 88 90 95 87 87 74 71 54 53 54 56 53 68 71 57 74 67 53 52 59 59 74 88 96 95 86 97 99 94 86 96 96 96 96 84 86 83 78 74 75 74 93 93
92 91 77 90 90 94 87 85 74 68 53 54 57 59 71 93 86 89 70 63 61 59 66 92 96 95 84 80 93 91 96 93 91 87 97 95 95 95 94 82 77 75 72 74 89
87 86 93 95 76 89 82 72 73 69 64 63 72 67 68 89 79 86 75 80 87 72 87 93 92 94 93 93 93 91 82 92 93 90 97 94 95 96 93 70 72 75 72 76 80
80 80 83 89 88 84 85 77 73 80 62 55 63 77 80 68 62 64 66 67 73 92 97 99 96 96 93 77 96 86 96 95 94 91 95 95 95 95 88 74 73 68 72 74 75
Wind_Speed
17 18 19 20 21 23 23 23 24 24 23 23 23 23 22 22 22 25 8 8 8 7 11 10 14 11 8 3 5 3 6 12 14 11 9 7 7 4 2 3 3 4 3 9 30
18 20 21 21 22 23 23 24 24 24 23 23 23 22 20 20 20 15 3 13 5 7 12 16 7 8 4 4 4 7 5 15 5 3 0 3 5 6 3 2 5 4 0 24 34
19 21 23 23 24 24 25 25 25 24 23 21 20 18 18 16 5 4 8 14 12 15 11 13 15 7 10 10 6 8 5 9 4 4 3 4 2 4 5 1 3 5 9 20 21
20 22 22 24 25 26 26 26 25 24 22 20 17 16 13 8 2 5 13 13 11 15 12 7 6 5 6 12 11 9 10 10 3 5 3 2 5 5 5 3 3 7 8 14 16
21 22 24 25 26 27 27 27 25 23 21 16 14 11 7 4 6 11 15 16 14 12 6 4 5 6 5 4 10 14 7 6 6 6 4 5 1 5 9 3 8 12 3 7 15
21 23 24 26 27 28 28 27 26 25 20 12 8 4 1 4 7 15 15 21 13 7 4 3 1 8 6 4 2 6 7 10 8 4 5 7 3 2 8 5 7 9 10 9 4
22 24 25 26 27 28 29 29 29 25 11 5 2 2 1 7 14 14 21 18 12 6 2 4 4 3 5 6 9 4 6 5 7 8 4 5 6 7 10 2 5 5 6 8 4
22 24 26 27 27 26 29 32 28 15 6 2 1 1 4 9 13 18 16 17 2 3 7 6 0 1 1 4 2 2 2 3 3 9 6 8 5 8 11 8 4 6 6 6 6
22 23 25 26 25 23 28 32 24 7 8 6 1 2 6 16 14 21 17 8 2 3 2 2 3 2 3 0 2 2 2 4 2 8 6 6 2 8 11 10 7 5 5 6 7
23 25 26 24 22 21 25 19 8 7 10 5 5 2 6 8 15 25 16 12 1 2 3 4 4 3 3 2 3 2 1 1 3 4 8 7 2 6 10 11 13 8 1 5 8
23 26 24 22 16 16 29 6 9 6 10 1 6 3 7 16 16 11 10 11 4 2 3 1 2 3 4 3 4 6 4 3 3 2 4 6 8 6 8 6 7 9 2 4 6
24 25 21 21 9 17 22 6 2 3 6 4 5 6 15 9 5 8 16 6 4 3 1 3 3 6 5 2 0 3 3 3 5 3 2 3 7 8 10 10 13 11 6 2 3
24 24 18 20 3 20 11 13 8 2 1 7 5 4 8 6 5 7 8 6 2 3 3 3 5 3 4 2 2 5 4 3 3 7 2 3 3 4 5 5 11 14 10 4 6
24 20 18 18 3 13 4 18 5 1 5 8 8 6 11 11 3 7 10 2 4 4 6 4 4 5 2 3 4 3 7 7 5 3 1 2 3 4 6 8 12 14 13 10 7
23 15 17 18 8 5 15 13 1 1 5 16 8 8 13 7 7 10 9 5 3 4 3 4 5 5 3 0 5 5 3 7 4 4 4 4 3 5 5 6 10 13 12 12 11
20 9 15 14 13 12 20 3 1 6 3 7 6 11 11 8 8 9 7 8 1 4 4 6 5 2 3 5 2 3 3 4 6 3 1 5 3 4 5 10 10 11 14 16 16
17 6 20 11 10 19 8 3 5 7 5 9 7 9 8 9 8 8 6 10 6 8 8 7 5 3 1 3 5 5 1 3 3 2 4 3 3 5 3 3 10 15 14 13 13
12 2 23 25 20 12 3 6 9 4 3 6 7 9 5 11 6 8 6 5 5 5 2 4 7 6 5 3 2 2 2 4 6 4 3 2 4 1 5 8 7 13 18 18 15
6 1 24 30 19 9 6 6 6 2 4 5 8 4 5 5 2 8 5 4 2 3 2 4 5 4 3 3 1 3 2 2 5 3 3 3 4 3 11 13 11 9 12 14 14
2 1 18 25 15 9 5 4 1 2 5 2 4 3 4 6 8 6 3 3 5 3 3 4 6 3 5 3 3 2 0 1 2 3 2 3 3 3 14 14 11 5 12 14 13
2 3 23 17 10 6 4 2 2 6 6 3 3 4 4 3 2 3 5 3 4 7 4 2 2 6 5 3 3 3 3 2 1 2 3 4 1 6 8 11 11 11 9 12 13
3 3 22 11 5 2 2 3 6 5 5 4 4 4 4 5 4 2 3 3 5 8 4 3 3 4 4 7 4 2 1 0 1 4 2 3 1 3 7 10 14 14 13 7 11
3 1 11 10 4 3 3 4 2 6 5 5 5 4 3 4 4 3 5 6 7 9 3 5 2 5 5 3 2 5 4 2 4 1 2 3 1 9 12 15 16 17 14 7 11
3 2 4 5 1 4 2 3 5 5 2 3 2 2 5 3 1 6 8 6 16 6 7 4 3 4 3 5 2 4 5 4 3 3 2 1 2 12 15 16 18 17 19 2 8
3 1 2 1 4 3 3 2 4 5 2 5 2 7 4 3 5 2 3 11 6 5 6 3 3 3 10 15 14 12 3 7 3 3 3 2 4 9 10 12 13 14 16 15 9
3 4 3 1 2 4 5 3 2 4 2 4 2 7 2 4 6 9 9 1 6 4 6 5 4 4 4 6 11 13 15 7 5 7 4 6 5 5 5 7 14 16 17 16 15
3 4 4 3 2 4 2 2 3 2 4 5 5 4 4 5 7 14 12 12 14 6 4 2 3 4 4 7 1 6 11 10 4 9 5 3 4 10 7 11 13 15 15 15 15
Wind_Direction
350 349 348 345 343 340 338 335 334 333 331 329 324 322 323 321 316 314 292 294 276 322 359 310 315 297 287 248 199 205 229 231 224 230 213 191 201 170 129 261 283 307 237 167 146
351 348 347 346 343 340 337 334 332 332 331 328 326 324 323 323 321 305 343 332 347 322 337 314 284 292 248 248 228 216 223 229 217 219 125 346 359 10 344 51 340 335 155 144 146
351 350 346 343 343 341 339 336 332 331 331 329 330 329 325 327 335 271 348 343 334 333 319 281 279 251 239 221 224 216 235 234 261 232 193 345 311 332 335 150 126 303 278 154 166
351 348 346 344 342 340 337 333 333 333 331 329 331 335 333 333 66 315 341 341 338 325 328 311 294 263 204 215 230 238 225 246 243 225 226 228 347 271 237 166 345 317 257 175 157
349 348 344 343 341 338 336 333 333 332 329 323 328 336 347 355 254 340 337 325 311 315 325 331 350 341 276 238 222 242 256 238 238 265 220 104 281 267 288 306 352 358 315 201 164
348 346 344 342 340 338 336 333 332 330 322 315 328 337 29 334 331 347 323 318 316 292 290 308 158 290 296 304 237 340 316 247 255 250 220 190 189 94 260 347 4 8 360 353 200
347 346 343 341 340 338 336 336 332 329 325 326 277 55 61 240 330 326 322 316 311 278 255 286 323 110 308 300 4 297 330 294 220 230 216 107 276 238 241 313 338 -0 351 357 312
348 347 343 341 342 342 345 340 334 346 35 70 144 29 254 316 327 325 331 327 343 11 256 297 65 16 178 320 339 304 239 208 230 168 171 139 233 186 198 180 282 320 12 355 318
347 346 343 343 345 350 349 342 336 353 336 155 137 104 305 330 334 333 326 310 322 33 62 14 3 2 320 185 29 347 221 178 330 193 139 176 166 205 179 176 210 267 4 3 337
346 347 345 347 352 358 359 358 6 55 80 114 63 37 324 306 323 321 332 316 214 139 26 25 21 354 340 215 202 200 285 65 169 11 187 174 202 157 173 182 176 205 343 22 346
347 348 352 354 1 9 7 3 10 354 35 83 295 271 284 302 317 327 344 325 14 70 318 301 341 257 240 266 310 341 345 78 322 280 351 196 187 167 165 170 167 189 141 49 351
347 349 358 354 5 9 20 54 39 270 322 315 262 264 272 283 313 324 358 1 21 321 355 353 268 256 234 212 338 289 293 280 284 311 250 278 218 192 158 185 178 166 155 143 304
348 352 1 354 4 8 13 19 334 221 286 310 272 296 308 333 319 320 16 330 354 334 330 241 271 269 222 114 193 215 232 244 236 345 282 304 308 175 211 156 158 159 148 152 242
349 356 5 2 41 350 358 343 356 220 66 347 339 356 348 323 349 15 7 330 352 322 322 245 306 345 343 184 150 194 224 226 221 220 191 333 243 249 195 178 175 174 157 160 217
352 1 12 17 342 359 327 329 19 66 38 324 323 317 318 29 306 337 3 360 349 310 4 276 338 358 337 16 169 232 207 177 157 120 3 319 71 280 155 189 193 183 164 171 183
355 9 9 6 356 341 331 317 86 42 295 329 331 332 353 352 340 322 15 14 9 355 347 264 280 270 255 307 261 91 16 36 121 92 347 249 137 267 201 211 188 168 181 169 192
357 39 15 8 338 335 343 41 36 83 346 333 328 334 326 340 333 7 358 28 40 9 0 323 319 300 18 327 7 75 93 16 98 138 207 236 120 259 252 227 175 177 172 177 185
355 34 13 8 353 358 69 52 62 276 347 295 313 314 2 2 345 336 11 19 37 59 339 358 335 12 6 15 299 169 173 160 164 174 174 174 213 231 340 322 215 162 176 178 175
350 245 6 1 358 12 69 49 184 247 301 299 322 355 335 6 350 357 19 346 45 58 70 359 282 325 288 240 226 262 266 158 103 278 79 253 284 235 4 25 12 154 160 176 180
347 45 8 355 11 54 68 122 197 255 314 342 357 31 334 329 8 30 347 339 331 31 167 268 291 309 312 309 233 140 208 26 24 141 121 300 34 324 342 354 358 28 167 181 185
13 54 355 5 41 48 94 221 335 347 15 348 316 309 347 317 297 302 273 317 338 333 352 244 202 294 324 33 19 11 1 355 128 147 157 145 290 344 322 340 347 343 288 192 179
57 43 354 18 52 17 59 346 346 334 358 347 1 50 356 322 303 287 279 234 32 340 333 271 290 293 287 301 290 269 309 65 117 298 212 163 203 330 354 354 6 346 312 201 179
79 330 359 26 86 348 314 349 15 10 353 355 1 37 30 307 340 260 337 312 353 338 344 328 332 327 350 12 67 39 345 1 316 2 329 102 157 14 13 9 8 350 335 179 174
81 47 346 41 76 111 78 1 353 339 271 334 297 53 0 345 300 300 306 310 330 311 320 2 269 224 233 237 323 319 322 2 344 12 334 31 40 359 4 5 352 349 352 179 150
37 250 171 351 353 74 72 334 349 347 326 345 329 4 349 324 311 234 291 319 303 339 359 45 277 242 268 279 271 253 285 319 313 233 71 11 70 15 358 354 344 354 356 22 33
113 119 10 92 59 57 357 330 332 308 262 292 297 311 249 190 197 283 299 255 254 337 9 343 286 326 300 354 49 69 23 341 3 15 71 93 76 21 333 12 12 10 357 6 10
93 84 103 321 64 84 236 248 292 354 287 253 294 300 269 253 252 270 260 255 253 294 334 308 307 346 281 338 353 25 2 11 69 28 339 35 18 346 9 25 18 2 359 357 355